Arctic Village, AK

12:07 AM AKDT on May 26, 2017 (GMT -0800)
Arctic Village

Weather History for PARC - July, 2013

Change the Weather History Date:

Thursday, July 11, 2013

  Actual Average Record
Temperature  
Mean Temperature 55 °F -  
Max Temperature 66 °F 67 °F 77 °F (2010)
Min Temperature 44 °F 45 °F 35 °F (1991)
Degree Days  
Heating Degree Days 10    
Growing Degree Days 5 (Base 50)    
Moisture  
Dew Point 37 °F    
Average Humidity 53    
Maximum Humidity 81    
Minimum Humidity 30    
Precipitation  
Precipitation 0.00 in - - ()
Sea Level Pressure  
Sea Level Pressure 30.16 in    
Wind  
Wind Speed 4 mph (South)    
Max Wind Speed 10 mph    
Max Gust Speed -    
Visibility 10 miles    
Events      
Averages and records for this station are not official NWS values.
T = Trace of Precipitation, MM = Missing Value Source: NWS Daily Summary

Daily Weather History Graph

Daily Weather History Graph

Search for Another Location

Airport or City:

Trip Planner

Search our weather history database for the weather conditions in past years. The results will help you decide how hot, cold, wet, or windy it might be!

Date:

Astronomy

Jul. 11, 2013 Rise Set
Actual Time 2:20 AM AKDT 1:15 AM AKDT
Civil Twilight Sun does not set Sun does not set
Nautical Twilight Sun does not set Sun does not set
Astronomical Twilight Sun does not set Sun does not set
Moon 8:56 AM AKDT (7/11) 11:33 PM AKDT (7/11)
Length of Visible Light 24h 00m
Length of Day
22h 55m
Waxing Crescent, 11% of the Moon is Illuminated
Jul 11
Waxing Crescent
Jul 15
First Quarter
Jul 22
Full
Jul 29
Last Quarter
Aug 6
New

Hourly Weather History & Observations

Time (AKDT) Temp. Windchill Dew Point Humidity Pressure Visibility Wind Dir Wind Speed Gust Speed Precip Events Conditions
12:16 AM 50.0 °F - 39.2 °F 66% 30.15 in 10.0 mi Calm Calm - N/A   Mostly Cloudy
12:36 AM 48.2 °F - 37.4 °F 66% 30.16 in 10.0 mi SSE 3.5 mph - N/A   Mostly Cloudy
12:56 AM 48.2 °F - 37.4 °F 66% 30.16 in 10.0 mi SSE 5.8 mph - N/A   Mostly Cloudy
1:16 AM 48.2 °F - 37.4 °F 66% 30.17 in 10.0 mi South 3.5 mph - N/A   Mostly Cloudy
1:36 AM 48.2 °F - 37.4 °F 66% 30.17 in 10.0 mi South 4.6 mph - N/A   Overcast
1:56 AM 48.2 °F - 37.4 °F 66% 30.18 in 10.0 mi SSW 3.5 mph - N/A   Overcast
2:16 AM 48.2 °F - 37.4 °F 66% 30.18 in 10.0 mi Calm Calm - N/A   Overcast
2:36 AM 46.4 °F 44.3 °F 37.4 °F 71% 30.18 in 10.0 mi South 4.6 mph - N/A   Mostly Cloudy
2:56 AM 46.4 °F 44.3 °F 37.4 °F 71% 30.19 in 10.0 mi South 4.6 mph - N/A   Clear
3:16 AM 44.6 °F 43.1 °F 37.4 °F 76% 30.19 in 10.0 mi SSW 3.5 mph - N/A   Partly Cloudy
3:36 AM 44.6 °F 42.2 °F 37.4 °F 76% 30.19 in 10.0 mi South 4.6 mph - N/A   Scattered Clouds
3:56 AM 44.6 °F 40.7 °F 37.4 °F 76% 30.19 in 10.0 mi South 6.9 mph - N/A   Mostly Cloudy
4:16 AM 44.6 °F 40.7 °F 37.4 °F 76% 30.19 in 10.0 mi SSE 6.9 mph - N/A   Partly Cloudy
4:36 AM 44.6 °F 41.4 °F 37.4 °F 76% 30.20 in 10.0 mi SSE 5.8 mph - N/A   Clear
4:56 AM 44.6 °F 40.7 °F 37.4 °F 76% 30.20 in 10.0 mi SSE 6.9 mph - N/A   Clear
5:16 AM 44.6 °F 41.4 °F 37.4 °F 76% 30.20 in 10.0 mi SE 5.8 mph - N/A   Clear
5:36 AM 46.4 °F - 37.4 °F 71% 30.19 in 10.0 mi Calm Calm - N/A   Clear
5:56 AM 44.6 °F 43.1 °F 39.2 °F 81% 30.19 in 10.0 mi ESE 3.5 mph - N/A   Clear
6:16 AM 44.6 °F 42.2 °F 39.2 °F 81% 30.19 in 10.0 mi ENE 4.6 mph - N/A   Clear
6:36 AM 44.6 °F 43.1 °F 39.2 °F 81% 30.20 in 10.0 mi East 3.5 mph - N/A   Clear
6:56 AM 44.6 °F 42.2 °F 39.2 °F 81% 30.20 in 10.0 mi East 4.6 mph - N/A   Clear
7:16 AM 44.6 °F 42.2 °F 39.2 °F 81% 30.20 in 2.5 mi East 4.6 mph - N/A   Clear
7:36 AM 46.4 °F 44.3 °F 39.2 °F 76% 30.20 in 10.0 mi East 4.6 mph - N/A   Clear
7:56 AM 46.4 °F - 39.2 °F 76% 30.19 in 10.0 mi Calm Calm - N/A   Clear
8:16 AM 48.2 °F - 41.0 °F 76% 30.19 in 10.0 mi Calm Calm - N/A   Clear
8:36 AM 50.0 °F - 39.2 °F 66% 30.19 in 10.0 mi SE 3.5 mph - N/A   Clear
8:56 AM 51.8 °F - 41.0 °F 67% 30.19 in 10.0 mi Calm Calm - N/A   Clear
9:16 AM 51.8 °F - 39.2 °F 62% 30.19 in 10.0 mi Calm Calm - N/A   Clear
9:36 AM 53.6 °F - 42.8 °F 67% 30.18 in 10.0 mi Calm Calm - N/A   Clear
9:56 AM 53.6 °F - 41.0 °F 62% 30.18 in 10.0 mi North 3.5 mph - N/A   Clear
10:16 AM 53.6 °F - 41.0 °F 62% 30.18 in 10.0 mi Calm Calm - N/A   Clear
10:36 AM 57.2 °F - 41.0 °F 55% 30.18 in 10.0 mi SE 3.5 mph - N/A   Clear
10:56 AM 55.4 °F - 37.4 °F 51% 30.18 in 10.0 mi Calm Calm - N/A   Clear
11:16 AM 57.2 °F - 35.6 °F 44% 30.18 in 10.0 mi Calm Calm - N/A   Clear
11:36 AM 57.2 °F - 35.6 °F 44% 30.18 in 10.0 mi Calm Calm - N/A   Clear
11:56 AM 59.0 °F - 35.6 °F 42% 30.18 in 10.0 mi Calm Calm - N/A   Clear
12:16 PM 60.8 °F - 35.6 °F 39% 30.17 in 10.0 mi Calm Calm - N/A   Clear
12:36 PM 60.8 °F - 35.6 °F 39% 30.17 in 10.0 mi ESE 3.5 mph - N/A   Clear
12:56 PM 60.8 °F - 33.8 °F 36% 30.17 in 10.0 mi NNW 4.6 mph - N/A   Clear
1:16 PM 62.6 °F - 33.8 °F 34% 30.17 in 10.0 mi NE 3.5 mph - N/A   Clear
1:36 PM 62.6 °F - 33.8 °F 34% 30.16 in 10.0 mi SE 3.5 mph - N/A   Clear
1:56 PM 62.6 °F - 33.8 °F 34% 30.16 in 10.0 mi ESE 3.5 mph - N/A   Clear
2:16 PM 62.6 °F - 33.8 °F 34% 30.16 in 10.0 mi Calm Calm - N/A   Clear
2:36 PM 62.6 °F - 33.8 °F 34% 30.15 in 10.0 mi North - - N/A   Clear
2:56 PM 62.6 °F - 33.8 °F 34% 30.15 in 10.0 mi East 4.6 mph - N/A   Clear
3:16 PM 64.4 °F - 33.8 °F 32% 30.15 in 10.0 mi ESE 4.6 mph - N/A   Clear
3:36 PM 64.4 °F - 33.8 °F 32% 30.15 in 10.0 mi SW 3.5 mph - N/A   Clear
3:56 PM 64.4 °F - 33.8 °F 32% 30.14 in 10.0 mi SW 3.5 mph - N/A   Clear
4:16 PM 64.4 °F - 33.8 °F 32% 30.14 in 10.0 mi Calm Calm - N/A   Clear
4:36 PM 64.4 °F - 32.0 °F 30% 30.14 in 10.0 mi Calm Calm - N/A   Clear
4:56 PM 64.4 °F - 32.0 °F 30% 30.13 in 10.0 mi Calm Calm - N/A   Clear
5:16 PM 66.2 °F - 33.8 °F 30% 30.13 in 10.0 mi Calm Calm - N/A   Clear
5:36 PM 66.2 °F - 33.8 °F 30% 30.13 in 10.0 mi WSW 4.6 mph - N/A   Clear
5:56 PM 66.2 °F - 33.8 °F 30% 30.13 in 10.0 mi SW 5.8 mph - N/A   Clear
6:16 PM 66.2 °F - 33.8 °F 30% 30.12 in 10.0 mi NW 4.6 mph - N/A   Clear
6:36 PM 66.2 °F - 33.8 °F 30% 30.12 in 10.0 mi WSW 6.9 mph - N/A   Clear
6:56 PM 66.2 °F - 33.8 °F 30% 30.12 in 10.0 mi West 3.5 mph - N/A   Clear
7:16 PM 66.2 °F - 35.6 °F 32% 30.12 in 10.0 mi South 6.9 mph - N/A   Clear
7:36 PM 64.4 °F - 37.4 °F 37% 30.12 in 10.0 mi South 10.4 mph - N/A   Clear
7:56 PM 64.4 °F - 37.4 °F 37% 30.12 in 10.0 mi South 9.2 mph - N/A   Clear
8:16 PM 64.4 °F - 35.6 °F 34% 30.12 in 10.0 mi South 8.1 mph - N/A   Clear
8:36 PM 64.4 °F - 35.6 °F 34% 30.12 in 10.0 mi South 9.2 mph - N/A   Clear
8:56 PM 62.6 °F - 37.4 °F 39% 30.12 in 10.0 mi South 6.9 mph - N/A   Clear
9:16 PM 62.6 °F - 35.6 °F 37% 30.12 in 10.0 mi South 6.9 mph - N/A   Clear
9:36 PM 62.6 °F - 37.4 °F 39% 30.12 in 10.0 mi South 9.2 mph - N/A   Clear
9:56 PM 60.8 °F - 39.2 °F 45% 30.12 in 10.0 mi South 9.2 mph - N/A   Clear
10:16 PM 59.0 °F - 39.2 °F 48% 30.13 in 10.0 mi South 9.2 mph - N/A   Clear
10:36 PM 57.2 °F - 39.2 °F 51% 30.14 in 10.0 mi South 8.1 mph - N/A   Clear
10:56 PM 57.2 °F - 39.2 °F 51% 30.14 in 10.0 mi South 6.9 mph - N/A   Clear
11:16 PM 57.2 °F - 37.4 °F 48% 30.14 in 10.0 mi SSW 6.9 mph - N/A   Clear
11:36 PM 55.4 °F - 39.2 °F 54% 30.15 in 10.0 mi SSW 6.9 mph - N/A   Clear
11:56 PM 55.4 °F - 37.4 °F 51% 30.15 in 10.0 mi SW 9.2 mph - N/A   Clear